Simultaneous Nadir Overpasses (SNOs) Predictions

Prediction of SNOs between METOP-A and TERRA Satellite Orbit:

Table of predicted SNOs for the next 14.0 days since TLE Epoch: 3/15/2019
Index Date (METOP-A) Time (METOP-A) Lat,Lon (METOP-A) SZA (METOP-A ) Date (TERRA) Time (TERRA) Lat,Lon (TERRA) SZA (TERRA ) Distance(km) Time Diff (sec)
1 03/17/2019 20:22:19 81.45, -75.36 85.48 03/17/2019 20:22:51 81.45, -75.38 85.49 0.69 32
2 03/17/2019 21:12:59 -81.45, 92.12 94.53 03/17/2019 21:12:18 -81.45, 92.24 94.53 2.04 41
3 03/20/2019 15:56:33 81.45, -8.99 84.39 03/20/2019 15:57:07 81.45, -8.92 84.41 1.29 34
4 03/20/2019 16:47:13 -81.45, 158.53 95.61 03/20/2019 16:46:35 -81.44, 158.34 95.66 3.37 38
5 03/23/2019 11:30:47 81.45, 57.37 83.30 03/23/2019 11:31:23 81.46, 57.57 83.34 3.38 36
6 03/23/2019 12:21:27 -81.45,-135.07 96.70 03/23/2019 12:20:51 -81.44,-135.14 96.73 1.42 36
7 03/26/2019 07:05:00 81.45, 123.72 82.21 03/26/2019 07:05:39 81.44, 123.69 82.22 0.78 39
8 03/26/2019 07:55:40 -81.45, -68.67 97.78 03/26/2019 07:55:06 -81.45, -68.60 97.79 1.29 34
9 03/29/2019 02:39:14 81.45,-169.95 81.13 03/29/2019 02:39:55 81.45,-169.76 81.16 3.15 41




NCC Satellite Simultaneous Nadir Overpasses (SNOs) Prediction Service
